Regional Weather Roundup
Issued by NWS

Home | Current Version | Previous Version | Text Only | Print | Product List | Glossary Off
Versions: 1 2 3 4 5 6 7 8 9 10 11 12 13 14 15 16 17 18 19 20 21 22 23 24 25 26 27 28 29 30 31 32 33 34 35 36 37 38 39 40 41 42 43 44 45 46 47 48 49 50

000
ASUS43 KLOT 301200
RWRIL

ILLINOIS REGIONAL WEATHER ROUNDUP
NATIONAL WEATHER SERVICE CHICAGO/ROMEOVILLE IL
700 AM CDT SAT AUG 30 2014

NOTE: "FAIR" INDICATES FEW OR NO CLOUDS BELOW 12,000 FEET WITH NO
SIGNIFICANT WEATHER AND/OR OBSTRUCTIONS TO VISIBILITY.

* THESE STATIONS ARE NOT UNDER NWS QUALITY CONTROL. THEY ALSO MAY NOT
  REPORT WEATHER SUCH AS PRECIPITATION OR FOG.

ILZ001-002-007-009-015-016-024-301300-
NORTHWEST ILLINOIS

CITY           SKY/WX    TMP DP  RH WIND       PRES   REMARKS
MOLINE         MOCLDY    69  67  93 SW7       29.82R
6HR MIN TEMP:  68; 6HR MAX TEMP:  71; 6HR PCP:  0.30;

STERLING*      MOCLDY    66  64  94 CALM      29.84R
$$

ILZ003-004-008-010-011-017-018-301300-
NORTH CENTRAL ILLINOIS

CITY           SKY/WX    TMP DP  RH WIND       PRES   REMARKS
ROCKFORD       MOCLDY    68  65  90 S10       29.84R
6HR MIN TEMP:  68; 6HR MAX TEMP:  71; 6HR PCP:  0.03;

$$

ILZ005-006-012>014-019>023-301300-
NORTHEAST ILLINOIS

CITY           SKY/WX    TMP DP  RH WIND       PRES   REMARKS
CHICAGO-OHARE  MOCLDY    74  67  78 SW13      29.87R
6HR MIN TEMP:  73; 6HR MAX TEMP:  75; 6HR PCP:  0.01;

CHICAGO-MIDWAY CLOUDY    75  70  84 SW9       29.86R
6HR MIN TEMP:  75; 6HR MAX TEMP:  78; 6HR PCP: TRACE;

AURORA         MOCLDY    71  68  90 S7        29.86F FOG
6HR MIN TEMP:  71; 6HR MAX TEMP:  74; 6HR PCP:  0.34;

WAUKEGAN       PTCLDY    71  68  90 SW9       29.82S
6HR MIN TEMP:  71; 6HR MAX TEMP:  75; 6HR PCP: TRACE;

DUPAGE AIRPORT LGT RAIN  71  69  93 S7        29.85S
6HR MIN TEMP:  71; 6HR MAX TEMP:  75; 6HR PCP:  0.19;

WHEELING       CLOUDY    75  69  81 SW10      29.87R
6HR MIN TEMP:  74; 6HR MAX TEMP:  77; 6HR PCP: TRACE;

NORTHERLY ISL    N/A     74  68  81 SW10        N/A
$$

LMZ740>746-301300-
SOUTHERN LAKE MICHIGAN

STATION/POSITION SKY/WX   TEMP    WIND        PRES    VSBY  WAVE
                          AIR SEA DIR/SP/G                  HT/PER
                          (F)     (DEG/KT/KT) (MB)    (MI)  (FT/S)
SOUTHERN BUOY              72 69  190/ 16/ 17 1009.5R
WAUKEGAN HARBOR            73     220/ 12/ 16   N/A
HARRISON CRIB              74     210/ 18/ 22   N/A
BURNHAM HARBOR             74     210/  8/ 11   N/A
CALUMET HARBOR             74     190/  9/ 14 1010.3R
MICHIGAN CITY              73     160/ 12/ 18   N/A
MICHIGAN CITY 6N           74 72  200/ 12/ 16   N/A           2/ 3
ST. JOSEPH                 73 71  190/ 14/ 17   N/A           2/ 3
$$

ILZ025>027-034>036-040-047-049-050-058-095>099-301300-
WEST-CENTRAL ILLINOIS

CITY           SKY/WX    TMP DP  RH WIND       PRES   REMARKS
QUINCY         CLEAR     70  68  93 S7        29.89R FOG
MACOMB*        PTCLDY    68  66  94 SW8       29.90R
$$

ILZ028>032-037-038-041>044-048-051>054-059>061-301300-
CENTRAL ILLINOIS

CITY           SKY/WX    TMP DP  RH WIND       PRES   REMARKS
DECATUR        CLOUDY    72  69  90 SW10      29.94R
PEORIA         MOCLDY    73  69  87 S9        29.88R
6HR MIN TEMP:  72; 6HR MAX TEMP:  74; 6HR PCP: TRACE;

SPRINGFIELD    MOCLDY    73  69  87 S9        29.91S
6HR MIN TEMP:  73; 6HR MAX TEMP:  76;

TAYLORVILLE    NOT AVBL
$$

ILZ033-039-045-046-055>057-062-063-301300-
EAST-CENTRAL ILLINOIS

CITY           SKY/WX    TMP DP  RH WIND       PRES   REMARKS
CHAMPAIGN      CLOUDY    71  69  93 S12       29.95R
MATTOON        CLOUDY    72  68  87 S7        29.96R
$$

ILZ079-100>102-301300-
SOUTHWEST ILLINOIS

CITY           SKY/WX    TMP DP  RH WIND       PRES   REMARKS
BELLEVILLE     CLOUDY    72  71  99 VRB3      29.95R
CAHOKIA*       MOCLDY    72  70  93 SE5       29.95R
$$

ILZ064>066-069>071-074>076-080>082-084>086-088>090-092>094-301300-
SOUTH-CENTRAL ILLINOIS

CITY           SKY/WX    TMP DP  RH WIND       PRES   REMARKS
CARBONDALE     CLOUDY    73  70  90 CALM      29.99S
6HR MIN TEMP:  72; 6HR MAX TEMP:  74; 6HR PCP:  0.03;

MARION         CLOUDY    73  72  94 S6        30.01R
MT. VERNON     CLOUDY    72  66  83 S5        30.01R
$$

ILZ067-068-072-073-078-083-087-091-301300-
SOUTHEAST ILLINOIS

CITY           SKY/WX    TMP DP  RH WIND       PRES   REMARKS
LAWRENCEVILLE  CLOUDY    73  70  90 S6        30.00R FOG
ROBINSON*      CLOUDY    73  71  95 S5        30.00R
$$

ABBREVIATIONS USED IN REMARKS
   TC - TEMPERATURE IN CELSIUS
  WCI - WIND CHILL INDEX
   HX - HEAT INDEX
  VSB - VISIBILITY
$$



USA.gov is the U.S. government's official web portal to all federal, state and local government web resources and services.